Time,TemperatureF,DewpointF,PressureIn,WindDirection,WindDirectionDegrees,WindSpeedMPH,WindSpeedGustMPH,Humidity,HourlyPrecipIn,Conditions,Clouds,dailyrainin,SoftwareType,DateUTC
2016-12-07 00:06:00,49.8,48.0,29.86,NNW,333,5.0,-999.0,92,-99.99,,,0.00,weatherlink.com 1.10,2016-12-07 05:06:00,
2016-12-07 00:21:00,49.5,47.0,29.86,NW,313,5.0,-999.0,92,-99.99,,,0.00,weatherlink.com 1.10,2016-12-07 05:21:00,
2016-12-07 00:36:00,49.0,47.0,29.86,NW,319,7.0,-999.0,92,-99.99,,,0.00,weatherlink.com 1.10,2016-12-07 05:36:00,
2016-12-07 00:51:00,48.6,46.0,29.86,NW,317,14.0,-999.0,92,-99.99,,,0.00,weatherlink.com 1.10,2016-12-07 05:51:00,
2016-12-07 01:06:00,48.3,46.0,29.87,WNW,288,9.0,-999.0,92,-99.99,,,0.00,weatherlink.com 1.10,2016-12-07 06:06:00,
2016-12-07 01:21:00,48.0,46.0,29.87,NNW,336,8.0,-999.0,92,-99.99,,,0.00,weatherlink.com 1.10,2016-12-07 06:21:00,
2016-12-07 01:36:00,47.6,45.0,29.88,NW,312,11.0,-999.0,92,-99.99,,,0.00,weatherlink.com 1.10,2016-12-07 06:36:00,
2016-12-07 01:51:00,47.1,45.0,29.88,NW,315,14.0,-999.0,92,-99.99,,,0.00,weatherlink.com 1.10,2016-12-07 06:51:00,
2016-12-07 02:06:00,46.9,45.0,29.89,WNW,297,9.0,-999.0,92,-99.99,,,0.00,weatherlink.com 1.10,2016-12-07 07:06:00,
2016-12-07 02:21:00,47.0,45.0,29.89,NW,324,17.0,-999.0,93,-99.99,,,0.00,weatherlink.com 1.10,2016-12-07 07:21:00,
2016-12-07 02:36:00,46.8,45.0,29.90,NW,323,7.0,-999.0,93,-99.99,,,0.00,weatherlink.com 1.10,2016-12-07 07:36:00,
2016-12-07 02:51:00,46.7,45.0,29.90,NNW,336,9.0,-999.0,93,-99.99,,,0.00,weatherlink.com 1.10,2016-12-07 07:51:00,
2016-12-07 03:06:00,46.5,44.0,29.91,NNW,341,10.0,-999.0,92,-99.99,,,0.00,weatherlink.com 1.10,2016-12-07 08:06:00,
2016-12-07 03:21:00,46.4,44.0,29.91,NW,326,8.0,-999.0,92,-99.99,,,0.00,weatherlink.com 1.10,2016-12-07 08:21:00,
2016-12-07 03:36:00,46.3,44.0,29.91,NNW,340,6.0,-999.0,92,-99.99,,,0.00,weatherlink.com 1.10,2016-12-07 08:36:00,
2016-12-07 04:01:00,46.2,44.0,29.93,NW,320,5.0,-999.0,93,-99.99,,,0.00,weatherlink.com 1.10,2016-12-07 09:01:00,
2016-12-07 04:06:00,46.1,44.0,29.93,NW,311,5.0,-999.0,93,-99.99,,,0.00,weatherlink.com 1.10,2016-12-07 09:06:00,
2016-12-07 04:30:00,46.0,44.0,29.94,NNW,338,11.0,-999.0,93,-99.99,,,0.00,weatherlink.com 1.10,2016-12-07 09:30:00,
2016-12-07 04:44:00,46.0,44.0,29.94,NNW,334,7.0,-999.0,93,-99.99,,,0.00,weatherlink.com 1.10,2016-12-07 09:44:00,
2016-12-07 04:54:00,45.9,44.0,29.95,NNW,331,4.0,-999.0,93,-99.99,,,0.00,weatherlink.com 1.10,2016-12-07 09:54:00,
2016-12-07 05:07:00,45.8,44.0,29.95,NNW,342,10.0,-999.0,93,-99.99,,,0.00,weatherlink.com 1.10,2016-12-07 10:07:00,
2016-12-07 05:22:00,45.6,44.0,29.96,NNW,329,11.0,-999.0,93,-99.99,,,0.00,weatherlink.com 1.10,2016-12-07 10:22:00,
2016-12-07 05:36:00,45.5,44.0,29.96,NNW,333,15.0,-999.0,93,-99.99,,,0.00,weatherlink.com 1.10,2016-12-07 10:36:00,
2016-12-07 05:51:00,45.5,44.0,29.97,NNW,339,7.0,-999.0,93,-99.99,,,0.00,weatherlink.com 1.10,2016-12-07 10:51:00,
2016-12-07 06:06:00,45.5,44.0,29.98,NW,326,9.0,-999.0,93,-99.99,,,0.00,weatherlink.com 1.10,2016-12-07 11:06:00,
2016-12-07 06:22:00,45.6,44.0,29.99,NNW,331,6.0,-999.0,93,-99.99,,,0.00,weatherlink.com 1.10,2016-12-07 11:22:00,
2016-12-07 06:37:00,45.6,44.0,30.00,NNW,333,11.0,-999.0,93,-99.99,,,0.00,weatherlink.com 1.10,2016-12-07 11:37:00,
2016-12-07 06:52:00,45.7,44.0,30.01,NNW,343,10.0,-999.0,93,-99.99,,,0.00,weatherlink.com 1.10,2016-12-07 11:52:00,
2016-12-07 07:07:00,45.8,44.0,30.02,NNW,342,12.0,-999.0,92,-99.99,,,0.00,weatherlink.com 1.10,2016-12-07 12:07:00,
2016-12-07 07:22:00,45.9,44.0,30.02,North,355,10.0,-999.0,93,-99.99,,,0.00,weatherlink.com 1.10,2016-12-07 12:22:00,
2016-12-07 07:37:00,46.0,44.0,30.03,NNW,328,7.0,-999.0,93,-99.99,,,0.00,weatherlink.com 1.10,2016-12-07 12:37:00,
2016-12-07 07:52:00,46.1,44.0,30.03,NW,319,9.0,-999.0,92,-99.99,,,0.00,weatherlink.com 1.10,2016-12-07 12:52:00,
2016-12-07 08:07:00,46.6,44.0,30.03,NNW,333,14.0,-999.0,92,-99.99,,,0.00,weatherlink.com 1.10,2016-12-07 13:07:00,
2016-12-07 08:22:00,46.7,44.0,30.04,North,351,15.0,-999.0,91,-99.99,,,0.00,weatherlink.com 1.10,2016-12-07 13:22:00,
2016-12-07 08:37:00,47.3,45.0,30.05,NNW,340,8.0,-999.0,91,-99.99,,,0.00,weatherlink.com 1.10,2016-12-07 13:37:00,
2016-12-07 08:52:00,47.9,45.0,30.06,NNE,30,4.0,-999.0,90,-99.99,,,0.00,weatherlink.com 1.10,2016-12-07 13:52:00,
2016-12-07 09:07:00,48.7,46.0,30.06,NW,322,6.0,-999.0,89,-99.99,,,0.00,weatherlink.com 1.10,2016-12-07 14:07:00,
2016-12-07 09:22:00,49.6,46.0,30.06,NNW,342,8.0,-999.0,88,-99.99,,,0.00,weatherlink.com 1.10,2016-12-07 14:22:00,
2016-12-07 09:37:00,50.3,47.0,30.08,NNW,337,4.0,-999.0,87,-99.99,,,0.00,weatherlink.com 1.10,2016-12-07 14:37:00,
2016-12-07 09:52:00,51.0,47.0,30.08,NNW,331,7.0,-999.0,85,-99.99,,,0.00,weatherlink.com 1.10,2016-12-07 14:52:00,
2016-12-07 10:07:00,51.7,47.0,30.08,NNW,346,8.0,-999.0,85,-99.99,,,0.00,weatherlink.com 1.10,2016-12-07 15:07:00,
2016-12-07 10:24:00,52.3,47.0,30.08,NNW,342,9.0,-999.0,83,-99.99,,,0.00,weatherlink.com 1.10,2016-12-07 15:24:00,
2016-12-07 10:37:00,52.9,48.0,30.08,NNW,345,5.0,-999.0,83,-99.99,,,0.00,weatherlink.com 1.10,2016-12-07 15:37:00,
2016-12-07 10:52:00,53.5,48.0,30.08,NNE,19,13.0,-999.0,81,-99.99,,,0.00,weatherlink.com 1.10,2016-12-07 15:52:00,
2016-12-07 11:07:00,54.0,48.0,30.08,NNW,348,6.0,-999.0,80,-99.99,,,0.00,weatherlink.com 1.10,2016-12-07 16:07:00,
2016-12-07 11:22:00,54.5,48.0,30.07,NNE,33,5.0,-999.0,79,-99.99,,,0.00,weatherlink.com 1.10,2016-12-07 16:22:00,
2016-12-07 11:37:00,55.5,49.0,30.07,North,5,12.0,-999.0,78,-99.99,,,0.00,weatherlink.com 1.10,2016-12-07 16:37:00,
2016-12-07 11:52:00,55.8,49.0,30.06,NE,36,8.0,-999.0,77,-99.99,,,0.00,weatherlink.com 1.10,2016-12-07 16:52:00,
2016-12-07 12:08:00,56.5,49.0,30.06,NNE,29,12.0,-999.0,76,-99.99,,,0.00,weatherlink.com 1.10,2016-12-07 17:08:00,
2016-12-07 12:23:00,57.2,50.0,30.05,NNE,28,6.0,-999.0,76,-99.99,,,0.00,weatherlink.com 1.10,2016-12-07 17:23:00,
2016-12-07 12:38:00,57.9,50.0,30.04,NE,37,9.0,-999.0,75,-99.99,,,0.00,weatherlink.com 1.10,2016-12-07 17:38:00,
2016-12-07 12:53:00,58.3,50.0,30.04,NNE,30,8.0,-999.0,74,-99.99,,,0.00,weatherlink.com 1.10,2016-12-07 17:53:00,
2016-12-07 13:08:00,58.5,50.0,30.04,NNE,27,9.0,-999.0,73,-99.99,,,0.00,weatherlink.com 1.10,2016-12-07 18:08:00,
2016-12-07 13:23:00,58.9,50.0,30.04,ENE,59,7.0,-999.0,73,-99.99,,,0.00,weatherlink.com 1.10,2016-12-07 18:23:00,
2016-12-07 13:38:00,58.9,50.0,30.04,North,9,7.0,-999.0,72,-99.99,,,0.00,weatherlink.com 1.10,2016-12-07 18:38:00,
2016-12-07 13:53:00,59.0,50.0,30.04,NE,49,3.0,-999.0,72,-99.99,,,0.00,weatherlink.com 1.10,2016-12-07 18:53:00,
2016-12-07 14:08:00,59.6,51.0,30.04,NE,35,7.0,-999.0,73,-99.99,,,0.00,weatherlink.com 1.10,2016-12-07 19:08:00,
2016-12-07 14:23:00,59.9,50.0,30.05,NE,53,3.0,-999.0,71,-99.99,,,0.00,weatherlink.com 1.10,2016-12-07 19:23:00,